Regional Weather Roundup
Issued by NWS Jackson, KY

Home | Current Version | Previous Version | Graphics & Text | Print | Product List | Glossary On
Versions: 1 2 3 4 5 6 7 8 9 10 11 12 13 14 15 16 17 18 19 20 21 22 23 24 25 26 27 28 29 30 31 32 33 34 35 36 37 38 39 40 41 42 43 44 45 46 47 48 49 50
000
ASUS43 KJKL 241310
RWRJKL

EAST KENTUCKY HOURLY WEATHER ROUNDUP
NATIONAL WEATHER SERVICE JACKSON KY
900 AM EDT SAT JUN 24 2017

NOTE: "FAIR" INDICATES FEW OR NO CLOUDS BELOW 12,000 FEET WITH
NO SIGNIFICANT WEATHER AND/OR OBSTRUCTIONS TO VISIBILITY.

* THESE REPORTS ARE NOT UNDER NWS QUALITY CONTROL AND MAY NOT
  REPORT WEATHER SUCH AS PRECIPITATION AND FOG.

KYZ079-080-083-085-087-088-110-112-115-119-120-241400
...EASTERN KENTUCKY...

CITY           SKY/WX    TMP DP  RH WIND       PRES   REMARKS
JACKSON        PTSUNNY   67  65  93 VRB5      30.00R
LONDON         MOSUNNY   70  66  87 NW7       30.01R
SOMERSET*      MOSUNNY   70  68  94 CALM      30.02R
MONTICELLO*    MOSUNNY   74  69  85 W6        30.03R
WILLIAMSBURG*  PTSUNNY   70  70 100 CALM      30.01R
MIDDLESBORO*   CLOUDY    68  68  98 CALM      30.01R
HARLAN APT*    CLOUDY    66  63  88 CALM      30.02R
PIKE CO APT*   CLOUDY    65  65 100 CALM      30.00R FOG
BIG SANDY APT* CLOUDY    67  67 100 W3        29.99R
MOREHEAD APT*  MOSUNNY   68  64  88 VRB5      30.01R FOG
$$

KYZ035-036-041-042-044-050-067-078-099-241400
...CENTRAL KENTUCKY...

CITY           SKY/WX    TMP DP  RH WIND       PRES   REMARKS
DANVILLE*      MOSUNNY   68  64  88 NW3       30.03R
LEXINGTON      MOSUNNY   69  63  81 NW7       30.01R
FRANKFORT      MOSUNNY   68  62  81 NW6       29.99R
LOUISVILLE     PTSUNNY   71  61  70 NW6       30.00R
LEBANON*         N/A    N/A N/A N/A MISG        N/A
GLASGOW*       MOSUNNY   70  68  95 NW3       30.02R
BOWLING GREEN  MOSUNNY   71  65  81 VRB5      30.03R
$$

KYZ091>093-OHZ055-061-077-WVZ005-015-034-035-042-241400
...SOUTHERN OHIO/WEST VIRGINIA...

CITY           SKY/WX    TMP DP  RH WIND       PRES   REMARKS
COVINGTON      MOSUNNY   67  61  81 NW8       29.97R
COLUMBUS       PTSUNNY   68  62  81 W12       29.91R
DAYTON         MOSUNNY   67  60  78 W10       29.96R
WILMINGTON     SUNNY     67  63  87 W8        29.95R
HUNTINGTON     PTSUNNY   71  66  84 VRB7      29.96R
CHARLESTON     PTSUNNY   69  64  84 W7        29.96R
PINEVILLE*     CLOUDY    67  64  89 MISG      30.06R
BECKLEY        CLOUDY    64  61  90 W5        30.03R
BLUEFIELD      CLOUDY    64  59  83 W6        30.05R
LOGAN CO APT*  PTSUNNY   64  64 100 CALM      30.00R
$$

VAZ002-007-008-TNZ017-027-036-066-071-241400
...SOUTHWEST VIRGINIA/EAST TENNESSEE...

CITY           SKY/WX    TMP DP  RH WIND       PRES   REMARKS
WISE*          CLOUDY    66  66 100 CALM      30.07R
JONESVILLE*    PTSUNNY   68  66  94 CALM      30.03R
ABINGDON*      CLOUDY    69  67  93 CALM      30.03R
BRISTOL        LGT RAIN  69  66  90 CALM      30.00S
MORRISTOWN*    CLOUDY    70  70 100 NE5       29.99R
KNOXVILLE      PTSUNNY   72  69  90 SW6       29.98R
LAFOLLETTE*    MOSUNNY   73  72  94 E6        30.03R
OAK RIDGE      CLOUDY    71  68  90 CALM      30.00R
CROSSVILLE     CLOUDY    71  68  90 N8        30.05R
NASHVILLE      PTSUNNY   74  66  76 NW8       30.03R
$$

...KEY TO REMARKS...
VSB - VISIBILITY IN MILES
WCI - WIND CHILL INDEX
HX  - HEAT INDEX

$$



USA.gov is the U.S. government's official web portal to all federal, state and local government web resources and services.